軌道要素
Epoch 2011 Apr. 29.0 TT = JDT 2455680.5
T 2011 Apr. 21.85749 TT MPC
q 3.3749136 (2000.0) P Q
z -0.0002704 Peri. 167.09104 -0.20794098 -0.56916176
+/-0.0005467 Node 70.74107 -0.95553193 +0.29204890
e 1.0009126 Incl. 122.57857 -0.20909155 -0.76861065
From 109 observations 2011 May 26-June 27, mean residual 0".5.
|